Temperature
23 22 22 21 20 21 23 24 24 24 23 23 23 22 22 21 20 19 19 19 19 19 19 19 19 19 19 19 19 19 19 19 19 19 19 19 19 19 18 18 18 18 18 18 18 18 18 18 18
23 23 22 21 21 21 23 24 24 24 24 23 23 22 21 20 20 19 19 19 20 20 19 19 19 19 19 19 19 19 19 19 19 19 19 19 18 18 19 19 19 18 18 18 18 18 18 18 18
23 22 22 21 22 22 24 25 25 25 24 24 23 22 22 20 20 19 20 20 20 20 20 19 19 19 19 19 19 19 19 19 19 19 19 19 19 19 19 19 18 18 18 18 18 18 18 18 18
23 22 22 22 23 24 25 25 25 25 24 23 23 22 21 21 20 20 20 20 20 20 20 19 19 19 19 19 19 19 19 19 19 19 19 19 19 19 19 19 18 18 18 18 18 18 18 18 18
24 23 22 22 24 26 26 26 25 24 24 23 22 21 21 21 21 20 20 20 20 20 20 19 19 19 19 19 19 19 19 19 19 19 18 19 18 18 18 18 18 18 18 18 18 18 18 18 18
24 23 22 23 25 26 26 26 25 24 23 23 22 21 20 20 20 20 20 20 20 20 20 19 19 19 19 19 19 19 19 19 19 19 19 19 18 18 18 18 18 18 18 18 18 18 18 18 18
24 23 23 25 25 26 26 26 25 24 23 23 22 21 20 20 20 20 20 20 20 20 20 19 19 19 19 19 19 19 19 19 19 19 18 18 18 18 18 18 18 18 18 18 18 18 18 18 18
26 23 24 25 25 26 26 26 25 24 24 23 23 21 20 20 20 20 20 20 20 20 19 19 19 19 19 19 19 19 19 19 19 19 18 18 18 18 18 18 18 18 18 18 18 18 18 18 18
27 24 24 25 26 26 26 26 26 25 24 23 23 22 21 21 20 20 20 20 20 19 19 19 19 19 19 19 19 19 19 19 19 19 18 18 18 18 18 18 18 18 18 18 18 18 18 18 18
26 24 26 27 27 27 27 26 26 24 23 23 22 22 21 21 21 21 20 20 19 19 19 19 19 19 19 19 19 19 19 19 19 19 19 18 18 18 18 18 18 18 18 18 18 18 18 18 18
27 26 28 28 28 28 27 26 26 24 22 22 22 21 21 21 21 21 20 20 20 19 19 19 19 19 19 19 19 19 19 19 18 18 18 18 18 18 18 18 18 18 18 18 18 18 18 18 18
28 28 29 29 29 28 27 26 25 24 23 23 23 22 22 21 21 21 20 20 20 19 19 19 19 19 19 19 19 19 19 19 18 18 18 18 18 18 18 18 18 18 18 18 18 18 18 18 18
28 29 29 29 29 28 27 26 25 24 24 23 23 22 22 22 21 21 21 20 20 20 19 19 19 19 19 19 19 19 19 19 18 18 18 18 18 18 18 18 18 18 18 18 18 18 18 18 18
29 29 28 28 28 28 27 26 25 24 24 23 23 22 22 22 21 21 21 20 20 20 20 19 19 19 19 19 19 19 19 19 18 18 18 18 18 18 18 18 18 18 18 18 18 18 18 18 18
29 28 27 28 28 27 26 25 25 24 24 23 23 22 22 22 22 21 21 21 20 20 20 20 20 19 19 19 19 19 19 19 18 18 18 18 18 18 18 18 18 18 18 18 18 18 18 18 18
27 26 26 27 27 27 25 24 25 25 24 23 23 22 22 22 22 22 21 21 21 20 20 20 20 19 19 19 19 19 19 19 18 18 18 18 18 18 18 18 18 18 18 18 18 18 18 18 18
25 25 25 27 28 27 25 24 25 25 24 24 23 23 22 22 22 22 21 21 21 21 20 20 20 20 19 19 19 19 19 19 19 18 18 18 18 18 18 18 18 18 18 18 18 18 18 18 18
25 25 26 26 27 27 25 24 25 25 25 24 24 23 23 22 22 22 21 21 21 21 21 20 20 20 19 19 19 19 19 19 19 19 18 18 18 18 18 18 18 18 18 18 18 18 18 18 18
27 26 26 27 28 27 25 25 25 25 25 24 24 23 23 22 22 22 22 21 21 21 21 20 20 20 20 19 19 19 19 19 19 19 19 18 18 18 18 18 18 18 18 18 18 18 18 17 17
28 27 27 27 28 27 25 25 25 25 24 24 24 23 23 23 22 22 22 21 21 21 21 20 20 20 20 19 19 19 19 19 19 19 19 18 18 18 18 18 18 18 18 18 18 18 18 18 17
28 27 27 27 27 26 25 24 24 24 25 25 24 24 24 23 23 22 22 22 21 21 21 21 20 20 20 20 19 19 19 19 19 18 18 18 18 18 18 18 18 18 18 18 18 18 18 18 18
28 29 29 28 26 24 24 22 23 23 23 24 24 24 23 23 23 23 22 22 22 21 21 21 20 20 20 20 19 19 19 19 19 19 18 18 18 18 18 18 18 18 18 18 18 18 18 17 17
28 29 29 28 25 23 23 22 22 22 23 23 24 24 24 23 23 23 23 22 22 21 21 21 20 20 20 20 19 19 19 19 19 19 18 18 18 18 18 18 18 18 18 18 18 18 17 17 17
30 28 26 24 22 23 23 22 22 22 23 23 24 24 24 23 23 23 23 22 22 21 21 21 21 20 20 20 19 19 19 19 19 19 18 18 18 18 18 18 18 18 18 18 18 18 17 17 17
28 25 23 24 22 22 23 23 22 23 24 24 24 24 24 23 23 23 22 22 22 22 21 21 21 20 20 20 19 19 19 19 19 19 18 18 18 18 18 18 18 18 18 18 18 17 17 17 17
27 25 23 24 23 22 23 22 23 24 24 25 25 25 24 23 23 23 23 22 22 22 21 21 21 21 20 20 20 19 19 19 19 19 19 18 18 18 18 18 18 18 18 17 17 17 17 17 17
27 25 23 22 22 22 22 22 23 24 24 24 24 24 24 23 23 23 23 23 22 22 21 21 21 21 20 20 20 19 19 19 19 19 18 18 18 18 18 18 18 18 18 17 17 17 17 17 17
27 26 22 22 22 22 22 22 22 23 23 23 23 23 24 24 23 23 23 23 22 22 22 21 21 21 20 20 20 19 19 19 19 19 18 18 18 18 18 18 18 18 17 17 17 17 17 17 17
27 26 23 20 21 21 22 22 23 23 23 23 23 23 23 24 23 23 23 22 22 22 22 21 21 21 20 20 20 19 19 19 19 19 18 18 18 18 18 17 17 17 17 17 17 17 17 17 17
27 26 23 23 22 21 21 22 24 23 22 22 23 23 23 23 23 23 23 22 22 21 21 21 21 20 20 20 20 19 19 19 19 18 18 18 18 18 17 17 17 17 17 17 17 17 17 17 16
Wind_Speed
13 9 4 1 2 4 4 5 7 9 6 8 10 11 10 7 6 6 3 9 10 8 8 11 12 13 14 16 16 16 16 17 16 16 16 16 16 16 16 16 16 16 15 15 15 14 14 15 16
9 5 1 1 4 5 4 6 11 12 12 13 12 12 10 8 8 9 5 9 10 10 9 11 13 14 15 15 15 15 15 15 15 15 15 15 15 15 15 15 15 15 14 14 13 13 14 14 14
9 4 2 2 3 5 5 8 13 14 12 10 7 7 6 6 7 6 8 11 10 8 9 12 14 14 15 15 15 15 15 14 14 14 14 14 14 14 14 14 14 13 13 13 12 12 12 13 13
5 2 1 3 5 5 8 9 13 14 10 9 9 7 5 5 5 9 13 13 11 8 9 13 15 14 14 14 14 14 14 14 14 14 14 13 14 13 13 13 13 12 12 11 11 11 11 11 12
2 2 3 3 5 6 9 11 12 11 6 10 11 9 6 4 12 15 14 13 12 8 8 12 15 14 14 13 13 13 13 13 14 13 13 13 13 13 13 12 12 11 11 10 10 9 9 10 10
1 2 3 4 7 8 8 12 16 16 15 12 11 9 4 7 12 13 12 11 11 10 8 10 13 14 13 13 13 13 13 13 13 13 13 12 12 12 12 12 11 11 10 9 8 8 8 8 9
3 3 3 5 8 9 8 10 12 14 13 8 8 7 5 6 9 11 11 11 10 10 8 6 9 11 12 12 12 12 12 12 12 12 12 12 11 11 11 10 10 9 9 8 7 7 7 6 7
4 3 2 4 8 7 8 8 11 14 11 11 7 7 6 8 10 11 10 10 9 8 7 5 6 7 7 9 11 11 11 11 11 11 11 11 10 9 9 9 9 9 8 7 6 6 6 5 6
3 3 3 5 8 8 11 13 10 10 11 7 6 8 11 14 13 11 9 7 7 8 5 5 5 6 6 7 9 10 11 11 10 10 10 9 7 7 7 8 8 8 8 7 6 5 5 4 5
5 4 6 6 9 12 14 15 10 9 12 10 11 11 13 13 13 12 10 9 7 7 5 4 4 5 6 6 7 7 8 8 8 7 8 8 7 6 6 7 7 8 7 6 5 4 4 2 2
5 6 5 7 11 14 13 11 8 12 10 13 16 15 13 12 11 10 9 9 8 7 7 5 4 4 4 3 6 5 5 6 6 7 8 7 6 5 5 4 5 5 6 4 4 4 3 2 2
5 5 6 8 11 12 12 9 9 10 11 15 16 15 12 12 10 10 9 8 7 7 6 6 4 3 3 4 4 5 5 4 5 7 8 6 3 3 3 3 4 4 4 4 3 2 3 2 3
6 5 7 9 11 11 13 12 11 11 15 15 15 14 12 11 9 8 9 8 8 7 6 5 5 4 3 3 3 4 5 5 6 7 7 7 4 3 3 3 4 4 4 4 3 3 2 2 2
3 5 6 8 11 10 15 11 9 12 16 15 14 12 12 12 11 9 9 8 7 7 6 5 5 5 4 3 3 4 4 5 6 6 6 7 5 4 3 2 2 3 5 5 4 3 3 2 2
3 5 5 6 8 8 12 7 8 15 15 15 13 12 12 12 12 11 11 10 9 8 6 6 6 5 4 4 3 4 4 5 4 5 6 6 6 5 3 2 2 2 4 4 3 3 2 2 2
4 4 2 2 5 6 8 6 8 13 15 13 12 13 11 11 12 12 11 10 9 8 7 6 6 5 4 3 3 3 4 5 4 4 5 6 6 6 4 2 2 3 3 3 2 2 1 1 1
4 1 2 3 4 6 6 6 9 12 14 13 12 12 12 11 10 10 11 10 10 9 8 6 5 5 4 3 3 3 4 4 4 4 4 5 5 6 5 2 1 3 2 2 2 2 2 2 2
4 2 2 4 4 6 5 7 11 12 14 13 12 12 12 13 11 11 11 10 9 9 8 7 6 5 4 3 3 2 3 2 3 3 4 5 5 6 4 3 2 2 2 1 1 2 1 2 2
7 6 6 6 5 5 6 7 11 12 11 12 12 11 12 13 11 11 12 11 10 8 8 7 6 5 4 3 2 2 1 1 2 2 4 5 5 5 4 2 2 2 2 2 2 2 1 1 1
7 5 4 3 3 4 5 6 8 11 12 14 15 14 13 11 10 11 11 11 10 10 8 7 7 6 5 3 3 2 2 1 2 1 3 5 5 5 5 3 3 3 2 2 2 2 2 1 2
7 7 7 6 3 4 5 1 3 6 7 10 12 13 14 15 15 14 13 12 11 10 9 9 7 6 6 4 3 2 2 2 1 1 1 2 4 4 4 4 3 3 3 2 2 2 3 2 1
7 8 9 8 5 2 4 3 5 6 7 10 12 12 14 14 14 14 14 12 12 11 9 8 7 6 5 5 4 4 3 2 3 2 2 2 2 3 4 4 4 3 3 2 2 2 2 3 1
7 7 6 6 6 3 1 3 5 4 7 12 13 14 13 15 15 14 14 14 12 11 10 9 7 6 5 4 4 4 3 3 2 1 2 2 1 2 3 4 3 3 2 2 2 2 2 2 2
4 4 5 5 5 1 3 4 5 6 11 11 12 13 13 14 14 13 13 12 11 10 10 9 8 7 6 6 5 5 5 4 3 2 2 1 1 1 2 4 3 3 2 2 3 3 2 2 2
2 5 3 4 4 3 2 3 6 7 8 12 13 13 13 14 14 13 13 13 12 12 11 9 9 7 6 6 6 6 5 5 4 4 3 2 1 1 2 3 3 2 2 3 2 2 2 2 2
4 9 8 5 5 3 2 3 6 6 5 7 9 11 12 12 12 13 14 15 14 13 12 11 10 8 7 6 6 5 5 4 3 4 4 3 2 2 2 3 3 2 2 2 2 2 2 2 2
4 4 9 8 3 1 2 3 6 2 2 5 7 8 11 13 13 13 14 15 14 14 13 12 11 9 8 7 6 5 5 4 4 3 3 2 2 2 2 2 2 2 2 2 2 1 2 1 2
7 7 6 6 5 2 2 3 5 5 5 5 6 8 8 9 11 12 12 13 13 13 12 11 11 10 8 7 6 5 4 5 5 4 3 3 2 1 2 2 2 2 2 1 1 1 1 1 1
1 2 4 5 7 7 4 6 7 9 8 8 8 8 9 10 11 10 10 11 11 11 11 10 10 9 8 7 6 5 5 5 5 4 4 3 2 2 2 2 2 2 1 1 1 1 1 1 1
5 5 6 5 4 6 5 6 4 8 8 9 8 7 8 9 10 9 10 10 10 10 10 10 9 9 8 7 7 6 5 5 4 4 3 3 3 2 2 2 2 2 1 1 2 2 1 1 1
Wind_Direction
158 162 160 171 51 55 83 91 97 87 72 71 79 86 83 72 95 125 147 136 137 134 130 122 117 113 112 112 111 111 111 110 109 108 108 110 111 112 114 116 117 118 118 119 120 123 127 130 131
157 161 152 65 77 83 85 103 98 103 116 108 86 85 80 76 91 115 132 141 139 137 134 128 123 119 116 114 112 112 112 112 113 113 113 114 116 117 118 118 118 119 120 121 121 124 127 130 132
162 172 131 78 101 126 123 110 107 107 104 99 91 72 76 100 107 127 149 141 133 131 134 133 129 125 122 119 117 117 118 118 119 119 119 119 119 118 119 119 119 120 121 121 123 126 131 135 138
160 137 51 79 109 131 128 128 120 110 86 79 93 73 72 100 119 133 138 135 130 131 135 136 134 130 127 127 126 124 124 124 123 123 124 123 122 122 122 121 120 120 120 123 126 129 134 139 142
127 106 65 79 109 109 116 119 114 103 95 94 96 98 88 84 116 128 134 134 133 131 130 135 134 132 132 132 131 130 130 128 127 126 127 127 126 126 126 124 124 124 123 125 125 128 133 143 148
98 85 81 103 113 106 109 112 105 102 110 107 102 103 98 118 123 132 132 131 130 128 128 137 138 137 137 136 134 134 134 133 132 129 128 128 129 131 133 132 132 131 129 126 128 133 138 144 152
131 118 137 131 117 117 122 121 118 123 122 119 120 102 109 122 129 132 129 125 126 130 130 136 139 140 141 142 141 140 139 138 135 134 133 133 135 138 139 138 136 134 132 130 132 137 142 152 161
169 118 104 118 118 121 127 114 125 127 118 130 122 119 142 153 137 124 123 121 125 131 136 138 135 135 138 143 148 148 147 142 139 139 139 142 142 142 144 146 145 142 141 142 142 145 148 156 166
133 94 151 150 133 130 120 110 107 101 117 119 100 121 139 140 129 119 116 113 121 127 135 144 144 146 150 153 151 152 151 146 146 146 145 145 146 147 151 154 156 154 155 156 157 157 156 156 166
141 149 187 163 143 135 127 122 117 107 108 107 109 116 130 133 133 133 134 135 138 146 152 155 154 159 166 158 153 160 160 157 156 156 156 156 156 160 161 166 171 169 169 171 172 173 173 171 160
155 157 148 134 135 128 125 118 109 123 129 143 141 142 142 139 139 141 144 144 151 158 157 163 161 162 167 160 167 177 170 167 169 166 164 161 162 168 163 168 180 183 187 194 200 200 205 188 182
130 130 126 135 131 127 129 122 115 131 151 151 147 147 145 144 148 150 148 145 143 142 147 158 155 149 156 156 172 182 172 174 177 176 169 163 164 168 169 176 186 188 195 197 210 212 211 205 211
100 108 106 122 124 125 124 122 120 131 142 144 144 146 149 153 152 148 145 140 137 139 140 141 136 132 129 131 166 165 167 167 163 165 167 164 159 166 166 175 182 191 194 195 204 199 200 191 207
108 101 109 116 112 120 120 119 115 141 145 145 148 152 155 154 151 146 143 140 143 145 143 141 133 129 120 113 112 135 155 159 155 164 170 163 160 156 149 160 170 185 194 199 203 197 187 188 183
77 88 82 115 117 126 114 104 139 152 149 148 153 157 157 156 154 155 159 155 153 152 148 148 146 134 122 117 118 122 142 149 152 166 168 164 163 162 155 154 169 192 192 181 179 185 178 168 159
52 74 101 210 129 140 112 146 168 159 151 155 160 160 159 162 163 164 163 157 155 151 150 155 151 139 136 137 129 118 128 133 142 156 160 164 165 159 151 146 178 186 168 149 148 154 146 153 157
28 105 196 241 173 150 125 163 182 167 156 162 164 163 161 165 167 167 166 162 159 157 155 154 146 147 151 148 130 122 117 130 146 152 153 161 161 157 146 144 161 157 133 145 173 156 161 176 190
231 224 215 215 203 146 151 175 173 173 163 167 170 167 165 169 175 170 164 163 160 158 154 153 153 156 148 130 107 97 99 122 147 156 161 158 158 154 146 138 137 131 121 138 154 153 167 177 186
201 205 218 230 189 150 171 171 173 176 171 170 175 174 171 173 175 169 167 167 160 157 156 157 156 163 146 133 133 130 142 158 163 176 170 164 161 156 147 142 142 133 137 161 153 142 148 176 142
215 203 215 217 185 152 146 168 179 181 184 181 181 179 177 171 169 171 171 171 169 168 166 164 165 166 166 165 163 162 159 181 179 181 167 169 165 166 161 152 159 154 144 141 133 134 140 183 159
232 203 201 188 153 96 101 37 186 188 189 186 185 181 178 177 176 178 177 177 172 173 173 174 174 170 170 161 132 110 78 63 67 129 183 186 169 170 162 162 158 155 148 160 168 153 150 177 226
242 225 195 172 135 164 142 187 249 194 197 195 195 188 184 180 178 179 179 176 177 177 171 166 171 170 168 152 141 149 156 177 204 192 191 203 176 169 164 159 155 157 158 172 191 174 163 156 204
222 209 183 168 143 118 67 133 264 191 201 209 202 196 189 183 180 180 178 176 175 172 169 170 167 167 164 157 163 167 176 192 190 164 163 183 194 176 165 157 154 161 168 180 183 169 161 165 181
188 81 49 55 83 103 224 158 243 209 207 207 205 195 191 183 178 179 176 171 173 172 170 169 168 170 165 165 173 181 184 175 160 157 163 183 193 186 166 166 168 176 180 184 185 188 181 186 183
106 99 35 4 14 248 246 147 238 230 211 200 197 193 189 181 175 175 174 175 177 172 172 172 170 172 172 168 176 184 181 171 168 172 175 172 175 194 206 185 182 187 192 189 181 179 192 189 188
195 145 162 193 211 254 326 210 252 244 210 186 184 180 175 173 177 178 179 181 182 177 175 173 175 179 177 173 180 180 170 165 171 175 172 174 184 194 189 170 174 181 182 189 180 181 204 195 205
183 188 168 142 145 120 274 286 313 312 168 158 163 165 175 176 176 182 184 182 180 179 179 176 177 179 180 181 180 178 173 163 161 160 156 165 180 179 161 159 164 173 171 169 158 185 211 199 214
170 168 105 118 141 172 272 256 229 229 194 172 161 160 170 171 175 177 176 178 180 181 179 174 176 179 179 179 183 183 173 165 158 149 149 155 165 161 144 147 159 163 156 152 146 189 221 185 244
177 115 125 130 150 156 198 254 220 203 183 163 161 163 161 161 170 170 167 172 176 175 173 174 175 173 176 181 180 171 162 160 151 154 162 162 156 151 148 156 155 152 150 149 138 165 156 162 275
172 183 154 160 198 158 163 253 245 184 169 155 153 147 152 159 167 166 162 160 163 166 169 173 177 179 184 181 169 166 160 158 159 164 168 161 156 153 149 147 152 162 164 164 163 180 165 161 180
Height
1497 1497 1497 1499 1501 1508 1509 1501 1496 1496 1497 1498 1497 1498 1501 1505 1510 1518 1516 1514 1514 1514 1515 1515 1515 1514 1514 1514 1514 1515 1516 1516 1517 1517 1518 1519 1519 1520 1521 1522 1522 1523 1525 1525 1526 1527 1528 1530 1532
1496 1497 1499 1500 1507 1519 1512 1499 1498 1498 1499 1499 1500 1501 1503 1508 1510 1512 1514 1515 1515 1515 1516 1516 1516 1516 1516 1516 1516 1517 1518 1518 1519 1520 1520 1521 1522 1522 1523 1524 1525 1526 1527 1528 1529 1529 1530 1531 1533
1496 1497 1499 1501 1508 1514 1509 1499 1497 1499 1499 1498 1501 1504 1506 1510 1512 1513 1514 1515 1516 1516 1517 1517 1517 1518 1518 1518 1519 1519 1520 1520 1521 1522 1522 1523 1524 1524 1525 1526 1527 1528 1529 1530 1531 1531 1532 1534 1535
1496 1499 1500 1505 1508 1500 1498 1497 1496 1499 1501 1501 1502 1507 1510 1512 1513 1514 1515 1516 1517 1517 1518 1518 1519 1519 1520 1520 1521 1521 1522 1522 1523 1524 1524 1525 1525 1526 1527 1528 1529 1530 1531 1531 1532 1533 1534 1536 1537
1497 1498 1504 1509 1504 1497 1495 1495 1496 1498 1502 1505 1504 1509 1513 1515 1514 1515 1517 1518 1518 1519 1519 1520 1521 1521 1521 1522 1522 1523 1523 1524 1524 1525 1526 1526 1527 1528 1529 1529 1530 1531 1532 1533 1534 1535 1536 1537 1538
1498 1499 1510 1513 1504 1498 1497 1497 1498 1501 1505 1507 1508 1511 1515 1517 1516 1518 1518 1519 1520 1520 1521 1521 1522 1522 1523 1523 1524 1524 1525 1525 1526 1527 1527 1528 1529 1530 1530 1531 1532 1533 1534 1534 1535 1535 1536 1537 1539
1498 1501 1508 1506 1504 1502 1499 1498 1499 1503 1506 1508 1509 1512 1517 1518 1519 1519 1520 1521 1521 1522 1522 1523 1523 1524 1524 1524 1525 1525 1526 1526 1527 1528 1528 1529 1530 1531 1532 1532 1533 1534 1534 1535 1535 1536 1536 1537 1538
1495 1499 1504 1504 1504 1503 1499 1499 1501 1502 1506 1509 1510 1512 1517 1519 1520 1521 1522 1522 1523 1523 1524 1524 1524 1525 1525 1525 1526 1526 1527 1527 1528 1529 1530 1530 1531 1532 1532 1533 1534 1534 1535 1535 1536 1536 1536 1536 1536
1494 1502 1508 1503 1501 1501 1498 1499 1504 1505 1507 1510 1510 1512 1516 1519 1521 1522 1523 1524 1524 1525 1525 1525 1525 1526 1526 1526 1526 1527 1527 1528 1529 1530 1531 1531 1532 1533 1533 1534 1535 1535 1536 1536 1537 1537 1536 1535 1535
1492 1503 1499 1491 1492 1495 1497 1499 1503 1507 1509 1511 1513 1516 1518 1520 1521 1522 1523 1524 1524 1526 1526 1527 1526 1526 1526 1526 1526 1527 1528 1529 1530 1531 1531 1532 1533 1534 1534 1535 1535 1536 1537 1537 1537 1538 1538 1537 1538
1488 1493 1488 1488 1490 1492 1496 1499 1502 1506 1511 1511 1512 1516 1518 1520 1522 1522 1523 1524 1525 1526 1527 1527 1527 1527 1527 1526 1526 1526 1527 1529 1530 1531 1532 1533 1533 1534 1535 1535 1536 1537 1537 1538 1538 1539 1540 1540 1541
1486 1486 1486 1489 1490 1492 1496 1499 1503 1505 1509 1511 1513 1515 1518 1520 1522 1523 1524 1525 1526 1527 1527 1528 1528 1528 1527 1526 1525 1525 1527 1529 1531 1532 1533 1533 1534 1535 1535 1536 1537 1537 1538 1539 1539 1540 1541 1542 1543
1485 1487 1487 1489 1490 1493 1496 1499 1503 1507 1510 1512 1514 1517 1518 1520 1522 1524 1525 1526 1527 1527 1528 1528 1529 1529 1528 1527 1526 1526 1528 1530 1532 1533 1534 1534 1535 1535 1536 1536 1537 1538 1539 1539 1540 1541 1541 1542 1543
1488 1487 1489 1491 1492 1495 1497 1502 1504 1509 1511 1513 1515 1517 1519 1521 1522 1524 1525 1526 1527 1528 1529 1529 1530 1530 1530 1529 1529 1529 1530 1532 1533 1534 1535 1535 1536 1536 1536 1537 1537 1538 1539 1540 1540 1541 1542 1542 1543
1488 1490 1492 1492 1493 1497 1499 1507 1506 1509 1511 1513 1516 1518 1520 1521 1522 1523 1525 1526 1527 1528 1529 1530 1530 1531 1531 1531 1532 1532 1532 1533 1534 1535 1535 1536 1536 1537 1537 1537 1538 1539 1539 1540 1540 1541 1542 1543 1543
1490 1496 1504 1497 1494 1498 1504 1516 1508 1509 1511 1513 1516 1518 1520 1521 1522 1523 1525 1526 1527 1528 1529 1530 1531 1532 1532 1533 1533 1534 1534 1535 1535 1535 1536 1536 1537 1537 1537 1537 1538 1539 1539 1540 1540 1541 1542 1542 1543
1501 1509 1508 1500 1493 1495 1503 1512 1507 1508 1510 1512 1515 1517 1519 1521 1523 1524 1525 1526 1527 1528 1530 1530 1531 1532 1533 1533 1534 1535 1535 1535 1536 1536 1537 1537 1537 1537 1538 1538 1538 1539 1539 1540 1540 1541 1541 1542 1543
1511 1509 1506 1503 1493 1494 1501 1505 1504 1507 1508 1510 1513 1516 1518 1520 1522 1523 1525 1526 1527 1528 1529 1530 1532 1532 1533 1534 1535 1535 1536 1536 1536 1536 1537 1537 1538 1538 1538 1538 1538 1539 1539 1539 1540 1540 1541 1542 1542
1495 1500 1504 1497 1488 1494 1499 1503 1504 1505 1507 1509 1512 1514 1516 1518 1520 1522 1524 1525 1527 1528 1529 1530 1531 1532 1533 1534 1534 1535 1536 1536 1536 1536 1537 1537 1537 1537 1537 1538 1538 1538 1538 1539 1539 1540 1540 1541 1541
1491 1498 1499 1493 1487 1492 1500 1503 1502 1503 1504 1506 1508 1511 1513 1517 1519 1521 1523 1524 1525 1527 1528 1529 1530 1531 1533 1533 1534 1535 1536 1536 1536 1536 1537 1537 1537 1537 1537 1537 1537 1538 1538 1538 1539 1539 1539 1540 1540
1489 1493 1494 1495 1491 1495 1502 1510 1507 1504 1504 1505 1507 1508 1510 1513 1516 1519 1520 1522 1524 1525 1527 1528 1530 1531 1532 1533 1534 1535 1535 1535 1536 1536 1536 1536 1536 1537 1537 1537 1537 1537 1537 1537 1538 1538 1538 1539 1539
1490 1479 1482 1487 1500 1512 1509 1528 1513 1505 1504 1503 1505 1507 1508 1510 1512 1515 1518 1520 1522 1524 1526 1527 1529 1530 1531 1532 1533 1533 1534 1534 1534 1535 1535 1535 1536 1536 1536 1536 1536 1536 1536 1536 1537 1537 1537 1537 1538
1478 1473 1477 1484 1498 1512 1512 1523 1517 1506 1507 1502 1501 1503 1506 1508 1509 1512 1515 1518 1520 1522 1524 1526 1527 1529 1530 1531 1532 1533 1533 1533 1534 1534 1534 1534 1535 1535 1535 1535 1535 1535 1535 1535 1535 1536 1536 1536 1536
1467 1476 1484 1493 1505 1524 1515 1522 1519 1507 1500 1497 1497 1500 1502 1504 1507 1511 1513 1516 1518 1520 1522 1524 1525 1527 1528 1529 1530 1531 1532 1532 1532 1532 1533 1533 1533 1533 1533 1534 1534 1534 1534 1534 1534 1534 1534 1534 1535
1470 1492 1516 1521 1531 1528 1511 1516 1513 1493 1488 1489 1491 1494 1497 1501 1505 1508 1511 1513 1515 1517 1519 1522 1524 1525 1527 1528 1529 1530 1530 1530 1531 1531 1531 1531 1531 1532 1532 1532 1532 1532 1532 1533 1533 1533 1533 1533 1533
1473 1487 1515 1529 1533 1527 1513 1516 1502 1485 1482 1483 1486 1489 1493 1498 1502 1505 1507 1510 1512 1514 1517 1519 1522 1524 1526 1527 1527 1528 1529 1529 1529 1530 1530 1530 1530 1530 1531 1531 1531 1531 1531 1531 1531 1531 1531 1531 1531
1472 1482 1485 1507 1518 1528 1522 1510 1495 1483 1482 1482 1484 1487 1491 1495 1498 1501 1504 1506 1509 1512 1514 1517 1520 1522 1524 1525 1526 1527 1527 1528 1528 1529 1529 1529 1529 1529 1529 1529 1529 1529 1529 1530 1529 1529 1529 1529 1529
1460 1469 1490 1507 1525 1532 1524 1517 1509 1492 1486 1483 1483 1485 1488 1491 1495 1498 1500 1503 1507 1509 1512 1515 1518 1520 1522 1524 1525 1525 1526 1527 1527 1527 1527 1527 1527 1528 1528 1528 1528 1528 1528 1528 1528 1527 1527 1527 1527
1465 1472 1484 1501 1506 1524 1531 1518 1486 1484 1481 1481 1482 1483 1485 1488 1492 1496 1498 1501 1505 1508 1511 1513 1516 1518 1520 1521 1523 1524 1524 1525 1525 1525 1526 1526 1526 1526 1526 1526 1526 1526 1526 1526 1526 1526 1525 1525 1525
1457 1466 1480 1498 1504 1508 1517 1509 1474 1476 1476 1478 1480 1483 1485 1488 1492 1495 1498 1500 1503 1506 1509 1511 1514 1516 1518 1519 1521 1521 1522 1523 1523 1523 1524 1524 1524 1524 1524 1525 1525 1525 1524 1524 1524 1524 1524 1523 1523